Regional Weather Roundup
Issued by NWS

Home | Current Version | Previous Version | Graphics & Text | Print | Product List | Glossary On
Versions: 1 2 3 4 5 6 7 8 9 10 11 12 13 14 15 16 17 18 19 20 21 22 23 24 25 26 27 28 29 30 31 32 33 34 35 36 37 38 39 40 41 42 43 44 45 46 47 48 49 50
000
ASUS43 KFSD 232102
RWRSD

WEATHER ROUNDUP FOR SOUTH DAKOTA
NATIONAL WEATHER SERVICE SIOUX FALLS SD
400 PM CDT MON APR 23 2018

NOTE: "FAIR" INDICATES FEW OR NO CLOUDS BELOW 12,000 FEET WITH NO
SIGNIFICANT WEATHER AND/OR OBSTRUCTIONS TO VISIBILITY.


SDZ001>005-009-010-012>017-232200-
NORTHWEST AND NORTH CENTRAL SOUTH DAKOTA

CITY           SKY/WX    TMP DP  RH WIND       PRES   REMARKS
BUFFALO          N/A     62  38  40 NE28G35   29.99F
FAITH            N/A     67  40  37 SE15G22   30.03F
MOBRIDGE       SUNNY     71  40  32 S12       30.06F
$$

SDZ012>016-024>037-041>051-057-063-072>074-232200-
SOUTHWEST AND SOUTH CENTRAL SOUTH DAKOTA

CITY           SKY/WX    TMP DP  RH WIND       PRES   REMARKS
RAPID CTY ARPT PTSUNNY   66  41  40 E13       30.00F
PIERRE         MOSUNNY   69  40  34 S17G24    30.05F
CUSTER         CLOUDY    56  33  42 SE14      30.07R
PHILIP         SUNNY     71  40  32 S14G23    30.00F
PINE RIDGE     SUNNY     70  39  32 S15G26    30.00F
SPEARFISH      PTSUNNY   61  39  44 E21       30.01S
WINNER         MOCLDY    69  38  32 S10       30.07F
$$

SDZ004>011-016>023-039-040-232200-
NORTHEAST SOUTH DAKOTA

CITY           SKY/WX    TMP DP  RH WIND       PRES   REMARKS
ABERDEEN       PTSUNNY   74  37  26 SE8       30.11F
WATERTOWN      SUNNY     67  36  31 MISG      30.13F
BROOKINGS      SUNNY     66  34  30 VRB5      30.14F
SISSETON         N/A     71  38  29 CALM      30.11F
$$

SDZ017-020-022-023-036>040-048>070-232200-
SOUTHEAST SOUTH DAKOTA

CITY           SKY/WX    TMP DP  RH WIND       PRES   REMARKS
SIOUX FALLS    MOSUNNY   69  33  26 NE3       30.13F
HURON          MOSUNNY   69  39  33 S6        30.11F
CHAMBERLAIN    PTSUNNY   69  41  36 S6        30.09F
MITCHELL       CLOUDY    68  41  37 S10       30.12F
YANKTON        SUNNY     69  35  28 NE9       30.11F
$$

ABBREVIATIONS USED IN REMARKS
   TC - TEMPERATURE IN CELSIUS
  WCI - WIND CHILL INDEX
   HX - HEAT INDEX
  VSB - VISIBILITY





USA.gov is the U.S. government's official web portal to all federal, state and local government web resources and services.